This is the latest recevied weather packets stored in our database for station/object WA0LM. If no packets are shown the sender has not sent any weather packets the latest 10 day(s).
| Time | Temp. | Humidity | Pressure | Rain* | Wind** | Luminosity | Snow |
|---|---|---|---|---|---|---|---|
| 1777947907 | 7.22° C | 57% | 1004.3 hPa | 0 mm | - | 0 W/m² | - |
| 1777947604 | 7.22° C | 59% | 1004.4 hPa | 0 mm | - | 0 W/m² | - |
| 1777947300 | 7.22° C | 58% | 1004.2 hPa | 0 mm | - | 0 W/m² | - |
| 1777946996 | 7.22° C | 57% | 1004.1 hPa | 0 mm | - | 0 W/m² | - |
| 1777946691 | 7.22° C | 59% | 1004 hPa | 0 mm | - | 0 W/m² | - |
| 1777946388 | 7.22° C | 60% | 1003.9 hPa | 0 mm | - | 0 W/m² | - |
| 1777946086 | 7.22° C | 59% | 1003.7 hPa | 0 mm | - | 0 W/m² | - |
| 1777945782 | 7.78° C | 55% | 1003.7 hPa | 0 mm | - | 0 W/m² | - |
| 1777945480 | 7.78° C | 57% | 1003.5 hPa | 0 mm | - | 0 W/m² | - |
| 1777945177 | 7.78° C | 57% | 1003.7 hPa | 0 mm | - | 1 W/m² | - |
| 1777944873 | 7.78° C | 59% | 1003.4 hPa | 0 mm | - | 1 W/m² | - |
| 1777944571 | 7.78° C | 56% | 1003.5 hPa | 0 mm | - | 2 W/m² | - |
| 1777944269 | 7.78° C | 59% | 1003.5 hPa | 0 mm | - | 4 W/m² | - |
| 1777943965 | 7.78° C | 56% | 1003.4 hPa | 0 mm | - | 4 W/m² | - |
| 1777943662 | 7.78° C | 56% | 1003.2 hPa | 0 mm | - | 5 W/m² | - |
| 1777943359 | 7.78° C | 57% | 1003.2 hPa | 0 mm | - | 8 W/m² | - |
| 1777943054 | 7.78° C | 56% | 1003.2 hPa | 0 mm | - | 11 W/m² | - |
| 1777942750 | 7.78° C | 57% | 1003.1 hPa | 0 mm | - | 17 W/m² | - |
| 1777942448 | 7.78° C | 57% | 1003 hPa | 0 mm | - | 22 W/m² | - |
| 1777942145 | 7.78° C | 56% | 1003 hPa | 0 mm | - | 23 W/m² | - |
| 1777941841 | 7.78° C | 56% | 1003 hPa | 0 mm | - | 21 W/m² | - |
| 1777941538 | 7.78° C | 59% | 1002.8 hPa | 0 mm | - | 27 W/m² | - |
| 1777941236 | 8.33° C | 56% | 1002.9 hPa | 0 mm | - | 39 W/m² | - |
| 1777940931 | 8.33° C | 53% | 1002.9 hPa | 0 mm | - | 55 W/m² | - |
| 1777940628 | 8.33° C | 54% | 1002.9 hPa | 0 mm | - | 36 W/m² | - |
* Rain latest hour (hover to see other rain measurements)
** Current wind speed in m/s (hover to see current wind gust speed)